Regional Weather Roundup
Issued by NWS

Home | Current Version | Previous Version | Text Only | Print | Product List | Glossary Off
Versions: 1 2 3 4 5 6 7 8 9 10 11 12 13 14 15 16 17 18 19 20 21 22 23 24 25 26 27 28 29 30 31 32 33 34 35 36 37 38 39 40 41 42 43 44 45 46 47 48 49 50

000
ASUS43 KFSD 242302
RWRSD

WEATHER ROUNDUP FOR SOUTH DAKOTA
NATIONAL WEATHER SERVICE SIOUX FALLS SD
500 PM CST WED DEC 24 2014

NOTE: "FAIR" INDICATES FEW OR NO CLOUDS BELOW 12,000 FEET WITH NO
SIGNIFICANT WEATHER AND/OR OBSTRUCTIONS TO VISIBILITY.


SDZ001>005-009-010-012>017-250000-
NORTHWEST AND NORTH CENTRAL SOUTH DAKOTA

CITY           SKY/WX    TMP DP  RH WIND       PRES   REMARKS
BUFFALO          N/A     38  28  67 W7        29.41S
FAITH            N/A     34  24  67 S9        29.48F WCI  27
MOBRIDGE       PTCLDY    27  21  78 S9        29.50F WCI  18
$$

SDZ012>016-024>037-041>051-057-063-072>074-250000-
SOUTHWEST AND SOUTH CENTRAL SOUTH DAKOTA

CITY           SKY/WX    TMP DP  RH WIND       PRES   REMARKS
RAPID CTY ARPT CLOUDY    36  26  67 SE3       29.49F
PIERRE         CLOUDY    27  21  78 SE8       29.54F WCI  19
CUSTER         CLOUDY    33  19  56 W12       29.51F WCI  24
ELLSWORTH AFB  MOCLDY    37  26  63 CALM      29.48F
PHILIP         CLOUDY    35  27  72 S3        29.52F
PINE RIDGE     CLOUDY    32  21  64 S8        29.54F WCI  25
WINNER         FAIR      34  23  64 S9        29.55F WCI  27
$$

SDZ004>011-016>023-039-040-250000-
NORTHEAST SOUTH DAKOTA

CITY           SKY/WX    TMP DP  RH WIND       PRES   REMARKS
ABERDEEN       CLOUDY    28  25  88 S13       29.57F WCI  17
WATERTOWN      CLOUDY    25  24  96 S9        29.59F FOG     WCI  15
SISSETON         N/A     27  25  92 S12       29.57F WCI  17
$$

SDZ017-020-022-023-036>040-048>070-250000-
SOUTHEAST SOUTH DAKOTA

CITY           SKY/WX    TMP DP  RH WIND       PRES   REMARKS
SIOUX FALLS    CLOUDY    26  23  88 SW6       29.67F FOG     WCI  19
HURON          CLOUDY    28  25  88 S12       29.62F WCI  18
MITCHELL       PTCLDY    29  26  89 S9        29.65F WCI  20
YANKTON        PTCLDY    28  25  86 S7        29.70F WCI  21
$$

ABBREVIATIONS USED IN REMARKS
   TC - TEMPERATURE IN CELSIUS
  WCI - WIND CHILL INDEX
   HX - HEAT INDEX
  VSB - VISIBILITY




USA.gov is the U.S. government's official web portal to all federal, state and local government web resources and services.